Location: Palomar Mountain Lodge
(33.3110°N, 116.8495°W)
Time: 05:25:02
(UTC-07:00)

MOZHAYETS 4 - Pass Details

Date: 15 April 2026
Orbit: 642 x 659 km, 98.3° (Epoch: 12 May)

Event Time Altitude Azimuth Distance (km) Brightness Sun altitude
Rises 05:31:00 0° 151° (SSE) 2,954 11.2 -10.1°
Reaches altitude 10° 05:33:16 10° 145° (SE) 2,044 10.4 -9.6°
Maximum altitude 05:37:30 44° 73° (ENE) 895 9.0 -8.8°
Drops below altitude 10° 05:41:44 10° 2° (N) 2,046 10.5 -8.0°
Sets 05:44:01 0° 356° (N) 2,958 11.2 -7.5°
